Time,TemperatureF,DewpointF,PressureIn,WindDirection,WindDirectionDegrees,WindSpeedMPH,WindSpeedGustMPH,Humidity,HourlyPrecipIn,Conditions,Clouds,dailyrainin,SoftwareType,DateUTC
2013-06-11 00:00:00,64.5,61.5,29.77,SSW,203,3.0,3.0,90,0.00,,,0.63,Wunderground v.1.15,2013-06-11 04:00:00,
2013-06-11 00:05:00,65.1,61.8,29.77,West,270,4.0,4.0,89,0.00,,,0.00,Wunderground v.1.15,2013-06-11 04:05:00,
2013-06-11 00:10:00,65.8,61.5,29.77,WSW,254,5.0,6.0,86,0.00,,,0.00,Wunderground v.1.15,2013-06-11 04:10:00,
2013-06-11 00:15:00,66.6,61.9,29.77,SW,224,5.0,6.0,85,0.00,,,0.00,Wunderground v.1.15,2013-06-11 04:15:00,
2013-06-11 00:25:00,67.3,61.6,29.76,SW,228,3.0,4.0,82,0.00,,,0.00,Wunderground v.1.15,2013-06-11 04:25:00,
2013-06-11 00:30:00,67.5,61.8,29.75,SSE,168,3.0,4.0,82,0.00,,,0.00,Wunderground v.1.15,2013-06-11 04:30:00,
2013-06-11 00:40:00,67.4,61.7,29.75,SW,225,5.0,5.0,82,0.00,,,0.00,Wunderground v.1.15,2013-06-11 04:40:00,
2013-06-11 00:45:00,67.4,61.4,29.75,SSE,165,5.0,5.0,81,0.00,,,0.00,Wunderground v.1.15,2013-06-11 04:45:00,
2013-06-11 01:40:00,65.9,60.9,29.75,East,84,1.0,1.0,84,0.00,,,0.00,Wunderground v.1.15,2013-06-11 05:40:00,
2013-06-11 01:50:00,65.9,60.9,29.75,East,81,1.0,1.0,84,0.00,,,0.00,Wunderground v.1.15,2013-06-11 05:50:00,
2013-06-11 02:00:00,65.9,60.9,29.75,East,100,1.0,1.0,84,0.00,,,0.00,Wunderground v.1.15,2013-06-11 06:00:00,
2013-06-11 02:05:00,65.8,60.5,29.75,East,86,1.0,1.0,83,0.00,,,0.00,Wunderground v.1.15,2013-06-11 06:05:00,
2013-06-11 02:15:00,65.7,60.7,29.75,NE,43,0.0,1.0,84,0.00,,,0.00,Wunderground v.1.15,2013-06-11 06:15:00,
2013-06-11 02:20:00,65.5,60.5,29.75,NE,46,1.0,2.0,84,0.00,,,0.00,Wunderground v.1.15,2013-06-11 06:20:00,
2013-06-11 02:30:00,65.6,61.0,29.75,SSW,193,0.0,0.0,85,0.00,,,0.00,Wunderground v.1.15,2013-06-11 06:30:00,
2013-06-11 02:40:00,65.5,60.5,29.75,West,262,1.0,5.0,84,0.00,,,0.00,Wunderground v.1.15,2013-06-11 06:40:00,
2013-06-11 02:50:00,65.5,60.5,29.75,South,189,2.0,2.0,84,0.00,,,0.00,Wunderground v.1.15,2013-06-11 06:50:00,
2013-06-11 03:15:00,65.5,60.5,29.74,SW,235,1.0,2.0,84,0.00,,,0.00,Wunderground v.1.15,2013-06-11 07:15:00,
2013-06-11 03:25:00,65.6,60.6,29.75,West,275,1.0,1.0,84,0.00,,,0.00,Wunderground v.1.15,2013-06-11 07:25:00,
2013-06-11 03:40:00,65.6,61.0,29.74,NW,318,2.0,3.0,85,0.00,,,0.00,Wunderground v.1.15,2013-06-11 07:40:00,
2013-06-11 03:50:00,65.7,60.7,29.74,SW,225,2.0,2.0,84,0.00,,,0.00,Wunderground v.1.15,2013-06-11 07:50:00,
2013-06-11 04:05:00,65.8,61.2,29.75,SW,232,2.0,2.0,85,0.00,,,0.00,Wunderground v.1.15,2013-06-11 08:05:00,
2013-06-11 04:15:00,65.4,61.1,29.75,SW,216,2.0,3.0,86,0.00,,,0.00,Wunderground v.1.15,2013-06-11 08:15:00,
2013-06-11 04:25:00,65.0,60.7,29.75,WSW,253,2.0,2.0,86,0.00,,,0.00,Wunderground v.1.15,2013-06-11 08:25:00,
2013-06-11 04:30:00,65.1,60.8,29.75,SW,229,3.0,3.0,86,0.00,,,0.00,Wunderground v.1.15,2013-06-11 08:30:00,
2013-06-11 04:40:00,65.3,61.0,29.75,WSW,249,2.0,2.0,86,0.00,,,0.00,Wunderground v.1.15,2013-06-11 08:40:00,
2013-06-11 04:50:00,65.3,61.0,29.75,WSW,255,1.0,1.0,86,0.00,,,0.00,Wunderground v.1.15,2013-06-11 08:50:00,
2013-06-11 05:00:00,65.0,60.7,29.75,WSW,255,0.0,0.0,86,0.00,,,0.00,Wunderground v.1.15,2013-06-11 09:00:00,
2013-06-11 05:10:00,65.0,61.0,29.76,West,259,1.0,2.0,87,0.00,,,0.00,Wunderground v.1.15,2013-06-11 09:10:00,
2013-06-11 05:20:00,65.1,61.1,29.76,WSW,253,0.0,0.0,87,0.00,,,0.00,Wunderground v.1.15,2013-06-11 09:20:00,
2013-06-11 05:30:00,65.0,61.0,29.76,WSW,253,0.0,0.0,87,0.00,,,0.00,Wunderground v.1.15,2013-06-11 09:30:00,
2013-06-11 05:40:00,65.0,61.0,29.76,WSW,253,0.0,0.0,87,0.00,,,0.00,Wunderground v.1.15,2013-06-11 09:40:00,
2013-06-11 05:50:00,64.9,61.3,29.76,WSW,253,0.0,0.0,88,0.00,,,0.00,Wunderground v.1.15,2013-06-11 09:50:00,
2013-06-11 06:00:00,64.9,60.9,29.76,WSW,253,0.0,0.0,87,0.00,,,0.00,Wunderground v.1.15,2013-06-11 10:00:00,
2013-06-11 06:05:00,64.9,61.3,29.76,WSW,253,0.0,0.0,88,0.00,,,0.00,Wunderground v.1.15,2013-06-11 10:05:00,
2013-06-11 06:15:00,64.8,61.2,29.76,WSW,253,0.0,0.0,88,0.00,,,0.00,Wunderground v.1.15,2013-06-11 10:15:00,
2013-06-11 06:25:00,64.8,61.2,29.76,WSW,253,0.0,1.0,88,0.00,,,0.00,Wunderground v.1.15,2013-06-11 10:25:00,
2013-06-11 06:35:00,64.6,61.3,29.77,WSW,253,0.0,1.0,89,0.00,,,0.00,Wunderground v.1.15,2013-06-11 10:35:00,
2013-06-11 06:45:00,64.5,61.2,29.76,WSW,253,0.0,1.0,89,0.00,,,0.00,Wunderground v.1.15,2013-06-11 10:45:00,
2013-06-11 06:55:00,64.5,61.2,29.77,North,8,0.0,1.0,89,0.00,,,0.00,Wunderground v.1.15,2013-06-11 10:55:00,
2013-06-11 07:10:00,64.7,61.4,29.77,SSW,212,1.0,1.0,89,0.00,,,0.00,Wunderground v.1.15,2013-06-11 11:10:00,
2013-06-11 07:20:00,65.1,61.8,29.77,South,191,0.0,0.0,89,0.00,,,0.00,Wunderground v.1.15,2013-06-11 11:20:00,
2013-06-11 07:30:00,65.2,61.9,29.77,South,191,0.0,2.0,89,0.00,,,0.00,Wunderground v.1.15,2013-06-11 11:30:00,
2013-06-11 07:40:00,66.1,62.4,29.78,WSW,245,1.0,1.0,88,0.00,,,0.00,Wunderground v.1.15,2013-06-11 11:40:00,
2013-06-11 07:50:00,67.1,62.1,29.77,WSW,239,2.0,8.0,84,0.00,,,0.00,Wunderground v.1.15,2013-06-11 11:50:00,
2013-06-11 07:55:00,67.6,62.6,29.77,WSW,245,4.0,8.0,84,0.00,,,0.00,Wunderground v.1.15,2013-06-11 11:55:00,
2013-06-11 08:05:00,68.0,61.9,29.77,WSW,244,3.0,5.0,81,0.00,,,0.00,Wunderground v.1.15,2013-06-11 12:05:00,
2013-06-11 08:15:00,68.4,62.3,29.77,NNW,347,4.0,4.0,81,0.00,,,0.00,Wunderground v.1.15,2013-06-11 12:15:00,
2013-06-11 08:25:00,68.6,62.5,29.77,SW,233,6.0,7.0,81,0.00,,,0.00,Wunderground v.1.15,2013-06-11 12:25:00,
2013-06-11 08:30:00,68.6,61.8,29.77,SW,215,6.0,9.0,79,0.00,,,0.00,Wunderground v.1.15,2013-06-11 12:30:00,
2013-06-11 08:40:00,68.2,62.1,29.78,SW,218,4.0,4.0,81,0.00,,,0.00,Wunderground v.1.15,2013-06-11 12:40:00,
2013-06-11 08:50:00,68.1,62.4,29.78,NNE,24,4.0,4.0,82,0.00,,,0.00,Wunderground v.1.15,2013-06-11 12:50:00,
2013-06-11 09:00:00,68.3,62.6,29.78,SW,230,3.0,9.0,82,0.00,,,0.00,Wunderground v.1.15,2013-06-11 13:00:00,
2013-06-11 09:05:00,68.5,61.7,29.78,SSW,199,5.0,9.0,79,0.00,,,0.00,Wunderground v.1.15,2013-06-11 13:05:00,
2013-06-11 09:15:00,68.8,62.4,29.78,WNW,290,2.0,7.0,80,0.00,,,0.00,Wunderground v.1.15,2013-06-11 13:15:00,
2013-06-11 09:20:00,68.9,62.8,29.78,WSW,240,3.0,5.0,81,0.00,,,0.00,Wunderground v.1.15,2013-06-11 13:20:00,
2013-06-11 09:40:00,68.9,62.8,29.78,SSW,199,3.0,3.0,81,0.00,,,0.00,Wunderground v.1.15,2013-06-11 13:40:00,
2013-06-11 09:50:00,68.7,63.0,29.78,SW,221,2.0,4.0,82,0.00,,,0.00,Wunderground v.1.15,2013-06-11 13:50:00,
2013-06-11 10:00:00,69.0,63.3,29.77,SSE,156,4.0,4.0,82,0.00,,,0.00,Wunderground v.1.15,2013-06-11 14:00:00,
2013-06-11 10:05:00,69.5,63.1,29.78,SSW,198,4.0,4.0,80,0.00,,,0.00,Wunderground v.1.15,2013-06-11 14:05:00,
2013-06-11 10:15:00,70.8,63.6,29.78,West,263,3.0,3.0,78,0.00,,,0.00,Wunderground v.1.15,2013-06-11 14:15:00,
2013-06-11 10:20:00,71.2,62.9,29.78,WSW,255,3.0,3.0,75,0.00,,,0.00,Wunderground v.1.15,2013-06-11 14:20:00,
2013-06-11 10:35:00,71.8,64.2,29.78,SW,231,4.0,8.0,77,0.00,,,0.00,Wunderground v.1.15,2013-06-11 14:35:00,
2013-06-11 10:45:00,72.5,64.1,29.78,South,179,4.0,7.0,75,0.00,,,0.00,Wunderground v.1.15,2013-06-11 14:45:00,
2013-06-11 10:55:00,73.1,64.3,29.77,WSW,251,5.0,8.0,74,0.00,,,0.00,Wunderground v.1.15,2013-06-11 14:55:00,
2013-06-11 11:05:00,73.4,64.6,29.78,SW,220,7.0,7.0,74,0.00,,,0.00,Wunderground v.1.15,2013-06-11 15:05:00,
2013-06-11 11:15:00,73.2,64.0,29.78,West,266,7.0,7.0,73,0.00,,,0.00,Wunderground v.1.15,2013-06-11 15:15:00,
2013-06-11 11:20:00,73.3,63.7,29.78,SW,215,6.0,6.0,72,0.00,,,0.00,Wunderground v.1.15,2013-06-11 15:20:00,
2013-06-11 11:35:00,73.8,64.6,29.78,SSW,197,4.0,7.0,73,0.00,,,0.00,Wunderground v.1.15,2013-06-11 15:35:00,
2013-06-11 11:45:00,72.6,63.4,29.78,SW,224,6.0,9.0,73,0.00,,,0.00,Wunderground v.1.15,2013-06-11 15:45:00,
2013-06-11 11:50:00,73.2,63.6,29.78,SSW,193,6.0,6.0,72,0.00,,,0.00,Wunderground v.1.15,2013-06-11 15:50:00,
2013-06-11 12:00:00,74.1,66.0,29.78,SSW,206,5.0,5.0,76,0.00,,,0.00,Wunderground v.1.15,2013-06-11 16:00:00,
2013-06-11 12:10:00,74.8,63.9,29.78,SW,222,6.0,6.0,69,0.00,,,0.00,Wunderground v.1.15,2013-06-11 16:10:00,
2013-06-11 12:15:00,75.1,65.1,29.78,West,269,7.0,7.0,71,0.00,,,0.00,Wunderground v.1.15,2013-06-11 16:15:00,
2013-06-11 12:25:00,75.4,64.1,29.78,WSW,239,8.0,9.0,68,0.00,,,0.00,Wunderground v.1.15,2013-06-11 16:25:00,
2013-06-11 12:40:00,76.5,65.6,29.78,NNE,18,3.0,5.0,69,0.00,,,0.00,Wunderground v.1.15,2013-06-11 16:40:00,
2013-06-11 12:55:00,75.7,65.2,29.79,West,260,7.0,7.0,70,0.00,,,0.00,Wunderground v.1.15,2013-06-11 16:55:00,
2013-06-11 13:00:00,75.6,66.3,29.78,SSW,201,6.0,6.0,73,0.00,,,0.00,Wunderground v.1.15,2013-06-11 17:00:00,
2013-06-11 13:05:00,75.9,65.4,29.79,West,266,6.0,10.0,70,0.00,,,0.00,Wunderground v.1.15,2013-06-11 17:05:00,
2013-06-11 13:20:00,75.5,65.4,29.79,SSW,193,6.0,6.0,71,0.00,,,0.00,Wunderground v.1.15,2013-06-11 17:20:00,
2013-06-11 13:25:00,75.5,65.4,29.79,WNW,295,5.0,15.0,71,0.00,,,0.00,Wunderground v.1.15,2013-06-11 17:25:00,
2013-06-11 13:40:00,73.9,65.9,29.78,SSW,198,6.0,6.0,76,0.00,,,0.00,Wunderground v.1.15,2013-06-11 17:40:00,
2013-06-11 13:55:00,74.7,65.5,29.78,West,266,6.0,7.0,73,0.00,,,0.00,Wunderground v.1.15,2013-06-11 17:55:00,
2013-06-11 14:00:00,74.8,66.7,29.79,WSW,237,6.0,11.0,76,0.00,,,0.00,Wunderground v.1.15,2013-06-11 18:00:00,
2013-06-11 14:05:00,75.1,65.5,29.79,SW,218,7.0,11.0,72,0.00,,,0.00,Wunderground v.1.15,2013-06-11 18:05:00,
2013-06-11 14:15:00,76.1,65.6,29.79,SSW,203,5.0,7.0,70,0.00,,,0.00,Wunderground v.1.15,2013-06-11 18:15:00,
2013-06-11 14:25:00,76.1,65.2,29.79,SW,230,6.0,6.0,69,0.00,,,0.00,Wunderground v.1.15,2013-06-11 18:25:00,
2013-06-11 14:45:00,74.7,65.1,29.79,SW,226,5.0,6.0,72,0.00,,,0.00,Wunderground v.1.15,2013-06-11 18:45:00,
2013-06-11 14:55:00,73.9,65.5,29.79,SW,226,8.0,8.0,75,0.00,,,0.00,Wunderground v.1.15,2013-06-11 18:55:00,
2013-06-11 15:05:00,75.0,65.8,29.80,NE,37,5.0,7.0,73,0.00,,,0.00,Wunderground v.1.15,2013-06-11 19:05:00,
2013-06-11 15:15:00,74.6,65.8,29.80,SW,223,3.0,4.0,74,0.00,,,0.00,Wunderground v.1.15,2013-06-11 19:15:00,
2013-06-11 15:25:00,73.4,65.7,29.80,West,273,2.0,3.0,77,0.00,,,0.00,Wunderground v.1.15,2013-06-11 19:25:00,
2013-06-11 15:35:00,73.8,64.6,29.79,West,277,5.0,7.0,73,0.00,,,0.00,Wunderground v.1.15,2013-06-11 19:35:00,
2013-06-11 15:45:00,74.9,65.3,29.79,WSW,247,5.0,6.0,72,0.00,,,0.00,Wunderground v.1.15,2013-06-11 19:45:00,
2013-06-11 15:55:00,75.5,66.6,29.80,SW,219,4.0,5.0,74,0.00,,,0.00,Wunderground v.1.15,2013-06-11 19:55:00,
2013-06-11 16:15:00,74.2,65.0,29.79,WSW,241,5.0,6.0,73,0.00,,,0.00,Wunderground v.1.15,2013-06-11 20:15:00,
2013-06-11 16:25:00,76.2,66.1,29.79,SW,235,4.0,5.0,71,0.00,,,0.00,Wunderground v.1.15,2013-06-11 20:25:00,
2013-06-11 16:35:00,76.8,65.9,29.79,West,267,5.0,6.0,69,0.00,,,0.00,Wunderground v.1.15,2013-06-11 20:35:00,
2013-06-11 16:45:00,76.6,66.5,29.78,SW,222,4.0,6.0,71,0.00,,,0.00,Wunderground v.1.15,2013-06-11 20:45:00,
2013-06-11 17:00:00,75.7,64.8,29.78,SSW,194,5.0,7.0,69,0.00,,,0.00,Wunderground v.1.15,2013-06-11 21:00:00,
2013-06-11 17:05:00,75.8,65.3,29.78,SSE,168,5.0,7.0,70,0.00,,,0.00,Wunderground v.1.15,2013-06-11 21:05:00,
2013-06-11 17:20:00,77.0,65.6,29.77,SSW,204,4.0,4.0,68,0.00,,,0.00,Wunderground v.1.15,2013-06-11 21:20:00,
2013-06-11 17:35:00,76.9,65.5,29.77,SSW,210,3.0,4.0,68,0.00,,,0.00,Wunderground v.1.15,2013-06-11 21:35:00,
2013-06-11 17:45:00,76.6,65.2,29.78,SSW,213,4.0,4.0,68,0.00,,,0.00,Wunderground v.1.15,2013-06-11 21:45:00,
2013-06-11 17:55:00,75.5,65.8,29.78,SW,217,5.0,5.0,72,0.00,,,0.00,Wunderground v.1.15,2013-06-11 21:55:00,
2013-06-11 18:05:00,75.5,66.2,29.77,SSW,210,3.0,4.0,73,0.00,,,0.00,Wunderground v.1.15,2013-06-11 22:05:00,
2013-06-11 18:15:00,75.5,65.0,29.77,WNW,298,3.0,3.0,70,0.00,,,0.00,Wunderground v.1.15,2013-06-11 22:15:00,
2013-06-11 18:30:00,75.0,65.4,29.78,SSW,199,4.0,5.0,72,0.00,,,0.00,Wunderground v.1.15,2013-06-11 22:30:00,
2013-06-11 18:40:00,74.8,64.8,29.78,SW,216,3.0,8.0,71,0.00,,,0.00,Wunderground v.1.15,2013-06-11 22:40:00,
2013-06-11 18:45:00,74.6,65.0,29.77,SW,235,3.0,8.0,72,0.00,,,0.00,Wunderground v.1.15,2013-06-11 22:45:00,
2013-06-11 18:55:00,74.3,64.3,29.78,WSW,250,2.0,2.0,71,0.00,,,0.00,Wunderground v.1.15,2013-06-11 22:55:00,
2013-06-11 19:10:00,74.1,64.5,29.78,West,274,3.0,5.0,72,0.00,,,0.00,Wunderground v.1.15,2013-06-11 23:10:00,
2013-06-11 19:20:00,74.0,64.4,29.79,WSW,238,2.0,4.0,72,0.00,,,0.00,Wunderground v.1.15,2013-06-11 23:20:00,
2013-06-11 19:25:00,74.0,64.4,29.78,SW,228,3.0,4.0,72,0.00,,,0.00,Wunderground v.1.15,2013-06-11 23:25:00,
2013-06-11 19:35:00,73.6,64.8,29.79,WNW,286,2.0,4.0,74,0.00,,,0.00,Wunderground v.1.15,2013-06-11 23:35:00,
2013-06-11 19:45:00,73.3,64.9,29.79,SW,229,3.0,4.0,75,0.00,,,0.00,Wunderground v.1.15,2013-06-11 23:45:00,
2013-06-11 20:00:00,72.5,64.9,29.79,SW,226,2.0,2.0,77,0.00,,,0.00,Wunderground v.1.15,2013-06-12 00:00:00,
2013-06-11 20:05:00,72.5,64.5,29.79,SW,219,1.0,6.0,76,0.00,,,0.00,Wunderground v.1.15,2013-06-12 00:05:00,
2013-06-11 20:15:00,72.8,64.8,29.79,SSW,213,3.0,3.0,76,0.00,,,0.00,Wunderground v.1.15,2013-06-12 00:15:00,
2013-06-11 20:30:00,72.1,64.1,29.80,WSW,239,2.0,2.0,76,0.00,,,0.00,Wunderground v.1.15,2013-06-12 00:30:00,
2013-06-11 20:40:00,72.0,64.0,29.80,SW,228,3.0,3.0,76,0.00,,,0.00,Wunderground v.1.15,2013-06-12 00:40:00,
2013-06-11 20:45:00,72.1,64.1,29.80,WSW,251,3.0,3.0,76,0.00,,,0.00,Wunderground v.1.15,2013-06-12 00:45:00,
2013-06-11 21:00:00,71.7,63.7,29.80,WSW,247,1.0,1.0,76,0.00,,,0.00,Wunderground v.1.15,2013-06-12 01:00:00,
2013-06-11 21:25:00,71.2,64.0,29.81,SW,235,2.0,3.0,78,0.00,,,0.00,Wunderground v.1.15,2013-06-12 01:25:00,
2013-06-11 21:35:00,71.1,63.9,29.81,NW,316,3.0,3.0,78,0.00,,,0.00,Wunderground v.1.15,2013-06-12 01:35:00,
2013-06-11 21:45:00,70.8,63.6,29.82,SW,232,2.0,2.0,78,0.00,,,0.00,Wunderground v.1.15,2013-06-12 01:45:00,
2013-06-11 21:55:00,70.5,63.7,29.82,NNW,335,3.0,4.0,79,0.00,,,0.00,Wunderground v.1.15,2013-06-12 01:55:00,
2013-06-11 22:05:00,70.4,63.6,29.82,WSW,237,1.0,2.0,79,0.00,,,0.00,Wunderground v.1.15,2013-06-12 02:05:00,
2013-06-11 22:10:00,70.3,63.5,29.83,NNW,329,1.0,1.0,79,0.00,,,0.00,Wunderground v.1.15,2013-06-12 02:10:00,
2013-06-11 22:20:00,69.8,63.3,29.83,NNW,329,0.0,1.0,80,0.00,,,0.00,Wunderground v.1.15,2013-06-12 02:20:00,
2013-06-11 22:35:00,69.3,62.9,29.83,WSW,258,1.0,2.0,80,0.00,,,0.00,Wunderground v.1.15,2013-06-12 02:35:00,
2013-06-11 22:45:00,69.1,63.0,29.83,East,79,1.0,1.0,81,0.00,,,0.00,Wunderground v.1.15,2013-06-12 02:45:00,
2013-06-11 22:55:00,69.0,62.9,29.83,SW,235,0.0,1.0,81,0.00,,,0.00,Wunderground v.1.15,2013-06-12 02:55:00,
2013-06-11 23:05:00,68.8,63.1,29.83,NW,316,1.0,1.0,82,0.00,,,0.00,Wunderground v.1.15,2013-06-12 03:05:00,
2013-06-11 23:20:00,68.9,63.2,29.83,SSW,205,0.0,0.0,82,0.00,,,0.00,Wunderground v.1.15,2013-06-12 03:20:00,
2013-06-11 23:30:00,68.6,62.9,29.83,SSW,208,0.0,0.0,82,0.00,,,0.00,Wunderground v.1.15,2013-06-12 03:30:00,
2013-06-11 23:35:00,68.5,62.8,29.83,SSW,208,0.0,0.0,82,0.00,,,0.00,Wunderground v.1.15,2013-06-12 03:35:00,
2013-06-11 23:50:00,68.3,62.9,29.83,SSW,208,0.0,0.0,83,0.00,,,0.00,Wunderground v.1.15,2013-06-12 03:50:00,